Duluth, MN

5:42 PM CDT on September 19, 2017 (GMT -0500)
Duluth International

Weather History for KDLH - July, 2013

Change the Weather History Date:

Tuesday, July 16, 2013

  Actual Average Record
Temperature  
Mean Temperature 78 °F 66 °F  
Max Temperature 92 °F 77 °F 97 °F (1936)
Min Temperature 64 °F 56 °F 44 °F (1958)
Degree Days  
Heating Degree Days 0 2  
Month to date heating degree days 9 38  
Since 1 June heating degree days 155 217  
Since 1 July heating degree days 9 38  
Cooling Degree Days 13 3  
Month to date cooling degree days 86 45  
Year to date cooling degree days 140 79  
Since 1 June cooling degree days 139 75  
Growing Degree Days 28 (Base 50)    
Moisture  
Dew Point 64 °F    
Average Humidity 64    
Maximum Humidity 87    
Minimum Humidity 41    
Precipitation  
Precipitation 0.00 in 0.12 in 2.92 in (1927)
Month to date precipitation 0.84 2.16  
Year to date precipitation 18.72 15.31  
Snow  
Snow 0.00 in 0.00 in 0.00 in (2002)
Month to date snowfall 0.0 0.0  
Since 1 June snowfall 0.0 0.0  
Since 1 July snowfall 0.0 0.0  
Snow Depth 0.00 in    
Sea Level Pressure  
Sea Level Pressure 30.17 in    
Wind  
Wind Speed 10 mph (South)    
Max Wind Speed 21 mph    
Max Gust Speed 26 mph    
Visibility 7 miles    
Events      
T = Trace of Precipitation, MM = Missing Value Source: NWS Daily Summary

Daily Weather History Graph

Daily Weather History Graph

Search for Another Location

Airport or City:

Trip Planner

Search our weather history database for the weather conditions in past years. The results will help you decide how hot, cold, wet, or windy it might be!

Date:

Astronomy

Jul. 16, 2013 Rise Set
Actual Time 5:30 AM CDT 8:58 PM CDT
Civil Twilight 4:53 AM CDT 9:35 PM CDT
Nautical Twilight 4:03 AM CDT 10:25 PM CDT
Astronomical Twilight 2:57 AM CDT 11:30 PM CDT
Moon 2:31 PM CDT (7/16) 12:12 AM CDT (7/16)
Length of Visible Light 16h 42m
Length of Day
15h 27m
First Quarter, 56% of the Moon is Illuminated
Jul 16
First Quarter
Jul 22
Full
Jul 29
Last Quarter
Aug 6
New
Aug 14
First Quarter

Hourly Weather History & Observations

Time (CDT) Temp. Heat Index Dew Point Humidity Pressure Visibility Wind Dir Wind Speed Gust Speed Precip Events Conditions
12:55 AM 64.9 °F - 61.0 °F 87% 30.20 in 10.0 mi ESE 5.8 mph - N/A   Partly Cloudy
1:55 AM 64.0 °F - 61.0 °F 90% 30.20 in 9.0 mi East 3.5 mph - N/A   Partly Cloudy
2:55 AM 64.0 °F - 60.1 °F 87% 30.19 in 6.0 mi East 5.8 mph - N/A   Scattered Clouds
3:49 AM 64.4 °F - 60.8 °F 88% 30.19 in 2.0 mi ESE 6.9 mph - N/A   Mostly Cloudy
3:55 AM 64.0 °F - 61.0 °F 90% 30.18 in 1.8 mi ESE 4.6 mph - N/A   Overcast
4:10 AM 64.4 °F - 60.8 °F 88% 30.19 in 0.8 mi ESE 5.8 mph - N/A   Mist
4:38 AM 64.4 °F - 60.8 °F 88% 30.18 in 2.0 mi ESE 3.5 mph - N/A   Overcast
4:45 AM 64.4 °F - 60.8 °F 88% 30.18 in 2.0 mi ESE 5.8 mph - N/A   Scattered Clouds
4:55 AM 64.0 °F - 61.0 °F 90% 30.18 in 1.5 mi SE 5.8 mph - N/A   Mostly Cloudy
5:01 AM 64.4 °F - 60.8 °F 88% 30.19 in 2.0 mi SE 4.6 mph - N/A   Scattered Clouds
5:55 AM 64.0 °F - 61.0 °F 90% 30.17 in 1.0 mi ESE 8.1 mph - N/A   Scattered Clouds
6:02 AM 64.4 °F - 60.8 °F 88% 30.18 in 2.0 mi ESE 5.8 mph - N/A   Mostly Cloudy
6:20 AM 64.4 °F - 60.8 °F 88% 30.18 in 4.0 mi ESE 3.5 mph - N/A   Mostly Cloudy
6:55 AM 66.0 °F - 62.1 °F 87% 30.18 in 7.0 mi ESE 4.6 mph - N/A   Mostly Cloudy
7:55 AM 70.0 °F - 64.9 °F 84% 30.18 in 9.0 mi South 6.9 mph - N/A   Mostly Cloudy
8:55 AM 77.0 °F - 69.1 °F 76% 30.18 in 10.0 mi SSW 12.7 mph - N/A   Partly Cloudy
9:55 AM 82.0 °F 85.9 °F 70.0 °F 67% 30.17 in 10.0 mi SW 10.4 mph - N/A   Clear
10:55 AM 84.9 °F 90.1 °F 71.1 °F 63% 30.17 in 10.0 mi WSW 10.4 mph - N/A   Scattered Clouds
11:55 AM 87.1 °F 91.3 °F 69.1 °F 55% 30.16 in 10.0 mi SW 12.7 mph 19.6 mph N/A   Scattered Clouds
12:55 PM 89.1 °F 92.9 °F 68.0 °F 50% 30.16 in 10.0 mi WSW 12.7 mph - N/A   Clear
1:55 PM 90.0 °F 92.4 °F 66.0 °F 45% 30.15 in 10.0 mi SW 18.4 mph 24.2 mph N/A   Scattered Clouds
2:55 PM 91.0 °F 94.3 °F 66.9 °F 45% 30.15 in 10.0 mi WSW 11.5 mph - N/A   Scattered Clouds
3:55 PM 91.0 °F 92.6 °F 64.0 °F 41% 30.15 in 10.0 mi WSW 18.4 mph 23.0 mph N/A   Partly Cloudy
4:55 PM 91.0 °F 92.6 °F 64.0 °F 41% 30.14 in 10.0 mi WSW 17.3 mph - N/A   Partly Cloudy
5:55 PM 90.0 °F 91.3 °F 64.0 °F 42% 30.14 in 10.0 mi WSW 16.1 mph 21.9 mph N/A   Partly Cloudy
6:55 PM 89.1 °F 91.3 °F 66.0 °F 46% 30.13 in 10.0 mi SW 9.2 mph 18.4 mph N/A   Partly Cloudy
7:55 PM 86.0 °F 88.8 °F 66.9 °F 53% 30.14 in 10.0 mi SW 9.2 mph - N/A   Clear
8:55 PM 82.9 °F 85.4 °F 66.9 °F 58% 30.15 in 10.0 mi SW 5.8 mph - N/A   Partly Cloudy
9:55 PM 81.0 °F 83.8 °F 68.0 °F 65% 30.17 in 10.0 mi SW 6.9 mph - N/A   Partly Cloudy
10:55 PM 79.0 °F - 68.0 °F 69% 30.16 in 10.0 mi SW 8.1 mph - N/A   Partly Cloudy
11:55 PM 77.0 °F - 66.9 °F 71% 30.17 in 10.0 mi WSW 8.1 mph - N/A   Partly Cloudy